DMSP 5D-2 F13 DEB, 40449

Orbit data source: Space-Track

DMSP 5D-2 F13 DEB, 40449 is space debris in SSO originally from a launch on Fri, 24 Mar 1995 UTC launched from the Air Force Western Test Range (AFWTR). Debris objects in space refer to the collection of defunct objects orbiting the Earth. Examples of debris include non-operational satellites, rocket bodies, and fragments generated from explosions, collisions, or faulty payload assembly.

Loading next visibility...
Identifier
40449, 1995-015BB
Orbit
SSO
Country
Flag of USUS
Related business
Manufacturer
Unknown
Mission
Spacecraft
Bus & Motor
Unknown
Mass
Unknown
Launch date (UTC)
1995-03-24 (31 years ago)
Launch vehicle
Unknown
Launch site
Air Force Western Test Range (AFWTR)
Object type
Payload
Rocket body
Debris
Shape & HBR
Unknown shape, 0.1 m
Radar Cross Section
Small (<0.1 m²)

Expand to show TLE details & history
Last TLE update: 2 days ago

TLE from 2 days ago
0 DMSP 5D-2 F13 DEB
1 40449U 95015BB  26117.29466395  .00004802  00000-0  17670-2 0  9999
2 40449  98.9233 132.1760 0024173  53.3543 306.9858 14.32934176576307
Epoch: 2026-04-27T07:04Z
TLE epoch observation values (Epoch: 2026-04-27T07:04:18.965Z)
Latitude
0.00003°
Longitude
170.81059°
Altitude
774.477 km
Speed
7.472 km/s
True Right ascension
08h 48m 42s
True Declination
0° 00' 00"
Sunlit
Object was in daylight at epoch
Visualization orbit readout
Latitude
Unknown
Longitude
Unknown
Altitude
Unknown
Speed
Unknown
Apparent Right ascension
Unknown
Apparent Declination
Unknown
Sunlit
N/A
Visualization observer readout
Local Sidereal Time
13:07:29
Azimuth
Unknown
Elevation
Unknown
Doppler factor
Unknown
Orbital elements
Apogee altitude
796.393 km
Perigee altitude
761.79 km
Semi-major axis
7,157.229 km
Eccentricity
0.00242
Inclination
98.9233°
RAAN
132.176°
Arg. of periapsis
53.3543°
True anomaly
306.76413°
Mean anomaly
306.9858°
Eccentric anomaly
306.87501°
Mean motion
3.58448 °/min
Orbital period
100.43 mins
BSTAR
0.001767
Loading maneuver chart data...
Computing Atmospheric mass density...

Documentation

Showing up to 5 results
|